Regional Weather Roundup
Issued by NWS

Home | Current Version | Previous Version | Graphics & Text | Print | Product List | Glossary On
Versions: 1 2 3 4 5 6 7 8 9 10 11 12 13 14 15 16 17 18 19 20 21 22 23 24 25 26 27 28 29 30 31 32 33 34 35 36 37 38 39 40 41 42 43 44 45 46 47 48 49 50
000
ASUS43 KIND 231009
RWRIN

WEATHER ROUNDUP FOR INDIANA
NATIONAL WEATHER SERVICE INDIANAPOLIS IN
600 AM EDT SAT MAY 23 2015

NOTE: "FAIR" INDICATES FEW OR NO CLOUDS BELOW 12,000 FEET WITH NO
SIGNIFICANT WEATHER AND/OR OBSTRUCTIONS TO VISIBILITY.

* - STATION DOES NOT REPORT WEATHER SUCH AS PRECIPITATION OR FOG.

+ - STATION NOT QUALITY CONTROLLED BY THE NATIONAL WEATHER SERVICE.
    USE DATA WITH CAUTION...ESPECIALLY DEWPOINT AND RELATIVE
    HUMIDITY OBSERVATIONS.

INZ001>003-010>013-019-020-231100-
NORTHWEST INDIANA

CITY           SKY/WX    TMP DP  RH WIND       PRES   REMARKS
GARY /AIRPORT/ PTCLDY    52  37  58 SE6       30.32R
KNOX *+        PTCLDY    46  34  61 CALM      30.33R
LA PORTE +     PTCLDY    47  38  70 CALM      30.34R
MICHIGAN CITY+ PTCLDY    50  32  50 SE3       30.33R
MONTICELLO +   PTCLDY    53  37  56 E5        30.30S
RENSSELAER +   PTCLDY    54  37  54 E6        30.32R
VALPARAISO     PTCLDY    47  37  68 E5        30.34R

$$

LMZ046-743>745-231100-
SOUTHERN LAKE MICHIGAN

STATION/POSITION TIME  TEMP    WIND        PRES    WAVE
                       AIR SEA DIR/SP/G            HT
                 (UTC) (F)     (DEG/KT/KT) (MB)    (FT)
BURNS HARBOR     1000   57     140/  9/ 18 1026.8S
MICHIGAN CITY    1000   53     110/ 10/ 13   N/A
5NW MICH CITY    1000   54 51  140/  8/ 10   N/A     1

$$

INZ004-005-014>016-021>024-231100-
NORTH CENTRAL INDIANA

CITY           SKY/WX    TMP DP  RH WIND       PRES   REMARKS
GOSHEN         CLEAR     39  35  86 CALM      30.34R
LOGANSPORT +   PTCLDY    48  34  57 E6        30.33S
PERU/GRISSOM   PTCLDY    50  37  59 E5        30.31R
ROCHESTER +    PTCLDY    46  39  76 CALM      30.34R
SOUTH BEND     PTCLDY    45  36  70 CALM      30.34S
WARSAW +       PTCLDY    43  39  87 CALM      30.34R

$$

INZ006>009-017-018-025>027-231100-
NORTHEAST INDIANA

CITY           SKY/WX    TMP DP  RH WIND       PRES   REMARKS
ANGOLA *+      CLEAR     43  37  81 CALM      30.35R
AUBURN +       CLEAR     41  36  81 CALM      30.35R
FORT WAYNE     PTCLDY    44  40  85 CALM      30.35R
HUNTINGTON +   CLEAR     43  39  86 CALM      30.34R

$$

INZ028-029-035-036-043>045-051>053-231100-
WEST CENTRAL INDIANA

CITY           SKY/WX    TMP DP  RH WIND       PRES   REMARKS
CRAWFORDSVL +  MOCLDY    53  35  49 E6        30.30R
GREENCASTLE +  CLOUDY    55  41  58 CALM      30.31R
LAFAYETTE      MOCLDY    54  39  57 E7        30.30R
TERRE HAUTE    CLOUDY    59  52  77 SE3       30.29R

$$

INZ030>032-037>040-046>048-054>057-064-065-231100-
CENTRAL INDIANA

CITY           SKY/WX    TMP DP  RH WIND       PRES   REMARKS
CP ATTERBURY + CLOUDY    52  50  93 CALM      30.31S
FISHERS *+     CLOUDY    54  41  62 E5        30.32R
FRANKFORT +    MOCLDY    57  37  46 E12       30.32S
GREENWOOD *+   CLOUDY    57  39  51 E5        30.31R
INDIANAPOLIS   CLOUDY    55  44  66 CALM      30.30R
-EAGLE CREEK   CLOUDY    58  39  49 NE5       30.30R
KOKOMO *+      PTCLDY    50  37  62 E5        30.33R
MARION +       PTCLDY    47  39  72 CALM      30.34R
MT COMFORT *+  CLOUDY    54  34  47 E5        30.32R
SHELBYVILLE    CLOUDY    58  45  62 E3        30.31R
ZIONSVILLE +   CLOUDY    57  36  44 E8        30.32R

$$

INZ033-034-041-042-049-050-058-059-231100-
EAST CENTRAL INDIANA

CITY           SKY/WX    TMP DP  RH WIND       PRES   REMARKS
MUNCIE         MOCLDY    50  42  74 E3        30.33S

$$

INZ060-061-067>069-081>083-085>088-231100-
SOUTHWEST INDIANA

CITY           SKY/WX    TMP DP  RH WIND       PRES   REMARKS
EVANSVILLE     CLOUDY    59  55  87 CALM      30.32R
HUNTINGBURG *+ MOCLDY    54  50  87 SE3       30.32R
WASHINGTON +   CLOUDY    57  53  87 S5        30.30R

$$

INZ062-063-066-070>080-084-089>092-231100-
SOUTH CENTRAL AND SOUTHEAST INDIANA

CITY           SKY/WX    TMP DP  RH WIND       PRES   REMARKS
BLOOMINGTON    CLOUDY    53  51  93 CALM      30.31R
MADISON *+     MOCLDY    52  50  93 CALM      30.34R
NORTH VERNON + CLOUDY    54  54 100 CALM      30.32S
SEYMOUR +      PTCLDY    54  52  94 CALM      30.31S

$$



USA.gov is the U.S. government's official web portal to all federal, state and local government web resources and services.